CW9638 Weather Reports


Display with metric or nautical units.
time (UTC)temp
F
wind
direction
speed
MPH
gust
MPH
rain 1hr
in
rain 24hr
in
rain mn
in
humidity
%
barometer
mb
20190220133059 26 132 0.0 1.0 0.00 0.00 0.00 95 1006.1
20190220132523 26 132 0.0 1.0 0.00 0.00 0.00 95 1006.4
20190220132024 26 132 0.0 1.0 0.00 0.00 0.00 95 1006.4
20190220131612 26 132 0.0 2.0 0.00 0.00 0.00 95 1006.4
20190220131024 26 132 0.0 2.0 0.00 0.00 0.00 95 1006.6
20190220130523 26 132 0.0 1.0 0.00 0.00 0.00 95 1006.6
20190220130044 26 132 0.0 1.0 0.00 0.00 0.00 95 1006.6
20190220125519 26 132 0.0 0.0 0.00 0.00 0.00 95 1006.8
20190220125020 26 132 0.0 1.0 0.00 0.00 0.00 95 1006.8
20190220124546 26 132 0.0 1.0 0.00 0.00 0.00 95 1006.8
20190220124024 26 132 0.0 0.0 0.00 0.00 0.00 95 1007.2
20190220123523 26 132 0.0 0.0 0.00 0.00 0.00 95 1007.2
20190220123046 26 132 0.0 0.0 0.00 0.00 0.00 95 1007.2
20190220122518 26 132 0.0 0.0 0.00 0.00 0.00 95 1007.3
20190220122018 26 132 0.0 0.0 0.00 0.00 0.00 95 1007.3
20190220121534 26 132 0.0 1.0 0.00 0.00 0.00 95 1007.3
20190220121018 26 132 0.0 2.0 0.00 0.00 0.00 95 1007.5
20190220120520 26 132 0.0 3.0 0.00 0.00 0.00 95 1007.5
20190220120052 26 132 1.0 3.0 0.00 0.00 0.00 95 1007.5
20190220115514 26 132 1.0 3.0 0.00 0.00 0.00 95 1007.8
20190220115013 26 132 1.0 3.0 0.00 0.00 0.00 95 1007.8
20190220114525 26 132 1.0 3.0 0.00 0.00 0.00 95 1007.8
20190220114013 26 132 2.0 3.0 0.00 0.00 0.00 95 1008.0
20190220113513 26 132 1.0 3.0 0.00 0.00 0.00 95 1008.0
20190220113030 26 132 1.0 3.0 0.00 0.00 0.00 95 1008.0
20190220112516 26 132 2.0 4.0 0.00 0.00 0.00 95 1008.4
20190220112010 26 132 1.0 4.0 0.00 0.00 0.00 95 1008.4
20190220111533 26 132 2.0 4.0 0.00 0.00 0.00 95 1008.4
20190220111010 26 132 2.0 5.0 0.00 0.00 0.00 95 1008.5
20190220110513 26 132 3.0 4.0 0.00 0.00 0.00 95 1008.5
20190220110014 26 132 2.0 4.0 0.00 0.00 0.00 95 1008.5
20190220105513 26 132 3.0 4.0 0.00 0.00 0.00 96 1008.9
20190220105008 26 132 2.0 4.0 0.00 0.00 0.00 95 1008.9
20190220104510 26 132 1.0 4.0 0.00 0.00 0.00 96 1008.9
20190220104008 26 132 0.0 3.0 0.00 0.00 0.00 95 1009.0
20190220103505 25 132 0.0 2.0 0.00 0.00 0.00 95 1009.0
20190220103025 25 132 0.0 1.0 0.00 0.00 0.00 95 1009.0
20190220102507 25 132 0.0 0.0 0.00 0.00 0.00 95 1009.4
20190220102003 25 132 0.0 0.0 0.00 0.00 0.00 95 1009.4
20190220101512 25 132 0.0 0.0 0.00 0.00 0.00 95 1009.4
20190220101006 25 132 0.0 0.0 0.00 0.00 0.00 95 1009.8
20190220100502 25 132 0.0 0.0 0.00 0.00 0.00 95 1009.8
20190220100017 25 132 0.0 0.0 0.00 0.00 0.00 95 1009.8
20190220095504 25 132 0.0 0.0 0.00 0.00 0.00 95 1010.2
20190220095003 25 132 0.0 0.0 0.00 0.00 0.00 95 1010.2
20190220094505 25 132 0.0 0.0 0.00 0.00 0.00 95 1010.2
20190220094106 25 132 0.0 0.0 0.00 0.00 0.00 95 1010.4
20190220093600 25 132 0.0 2.0 0.00 0.00 0.00 95 1010.4
20190220093159 25 132 0.0 3.0 0.00 0.00 0.00 95 1010.4
20190220092559 25 132 2.0 3.0 0.00 0.00 0.00 95 1010.8
20190220092102 24 132 1.0 3.0 0.00 0.00 0.00 95 1010.8
20190220091632 24 132 0.0 2.0 0.00 0.00 0.00 95 1010.8
20190220091058 24 132 0.0 0.0 0.00 0.00 0.00 95 1011.3
20190220090601 24 132 0.0 1.0 0.00 0.00 0.00 95 1011.3
20190220090121 24 132 0.0 1.0 0.00 0.00 0.00 95 1011.3
20190220085607 24 132 0.0 0.0 0.00 0.00 0.00 95 1011.3
20190220085056 24 132 0.0 2.0 0.00 0.00 0.00 95 1011.3
20190220084654 24 132 0.0 2.0 0.00 0.00 0.00 95 1011.3
20190220084100 24 132 1.0 2.0 0.00 0.00 0.00 95 1011.9
20190220083559 24 132 0.0 0.0 0.00 0.00 0.00 94 1011.9
20190220083231 24 132 0.0 0.0 0.00 0.00 0.00 94 1011.9
20190220082555 24 132 0.0 1.0 0.00 0.00 0.00 94 1012.3
20190220082059 24 132 0.0 2.0 0.00 0.00 0.00 94 1012.3
20190220081620 24 132 0.0 2.0 0.00 0.00 0.00 94 1012.3
20190220081053 24 132 0.0 2.0 0.00 0.00 0.00 94 1012.7
20190220080552 24 132 0.0 2.0 0.00 0.00 0.00 94 1012.7
20190220080127 24 132 0.0 2.0 0.00 0.00 0.00 94 1012.7
20190220075552 24 132 0.0 0.0 0.00 0.00 0.00 94 1013.0
20190220075054 24 132 0.0 0.0 0.00 0.00 0.00 94 1013.0
20190220074651 24 132 0.0 0.0 0.00 0.00 0.00 94 1013.0
20190220074052 24 132 0.0 1.0 0.00 0.00 0.00 94 1013.3
20190220073552 24 132 0.0 2.0 0.00 0.00 0.00 94 1013.3
20190220073217 24 132 0.0 3.0 0.00 0.00 0.00 94 1013.3
20190220072556 24 132 1.0 6.0 0.00 0.00 0.00 94 1013.5
20190220072050 24 132 2.0 5.0 0.00 0.00 0.00 94 1013.5
20190220071709 24 132 0.0 4.0 0.00 0.00 0.00 94 1013.5
20190220071052 23 132 1.0 4.0 0.00 0.00 0.00 94 1013.6
20190220070551 23 132 1.0 3.0 0.00 0.00 0.00 94 1013.6
20190220070117 23 132 1.0 4.0 0.00 0.00 0.00 93 1013.6
20190220065550 23 132 1.0 6.0 0.00 0.00 0.00 93 1013.5
20190220065047 23 132 1.0 6.0 0.00 0.00 0.00 93 1013.5
20190220064622 23 132 3.0 9.0 0.00 0.00 0.00 93 1013.5
20190220064044 23 122 5.0 9.0 0.00 0.00 0.00 93 1013.6
20190220063545 23 120 7.0 9.0 0.00 0.00 0.00 93 1013.6
20190220063112 23 134 5.0 7.0 0.00 0.00 0.00 93 1013.6
20190220062548 23 129 5.0 11.0 0.00 0.00 0.00 93 1013.5
20190220062044 23 132 6.0 12.0 0.00 0.00 0.00 93 1013.5
20190220061559 23 126 7.0 12.0 0.00 0.00 0.00 93 1013.5
20190220061048 22 121 8.0 12.0 0.00 0.00 0.00 93 1013.5
20190220060542 22 127 8.0 12.0 0.00 0.00 0.00 93 1013.5
20190220060111 22 110 8.0 11.0 0.00 0.00 0.00 93 1013.5
20190220055538 22 100 8.0 12.0 0.00 0.00 0.00 93 1013.7
20190220055039 22 105 9.0 15.0 0.00 0.00 0.00 93 1013.7
20190220054615 22 103 11.0 15.0 0.00 0.00 0.00 93 1013.7
20190220054037 22 101 9.0 17.0 0.00 0.00 0.00 93 1014.5
20190220053537 22 101 10.0 17.0 0.00 0.00 0.00 93 1014.5
20190220053111 22 101 9.0 15.0 0.00 0.00 0.00 93 1014.5
20190220052532 22 94 9.0 15.0 0.00 0.00 0.00 93 1015.3
20190220052034 22 93 10.0 15.0 0.00 0.00 0.00 93 1015.3
20190220051535 22 105 10.0 15.0 0.00 0.00 0.00 93 1015.3
20190220051026 22 109 9.0 13.0 0.00 0.00 0.00 93 1016.2
20190220050526 22 98 7.0 16.0 0.00 0.00 0.00 93 1016.2
20190220050036 22 97 8.0 14.0 0.00 0.00 0.00 93 1016.2
20190220045524 22 107 8.0 14.0 0.00 0.00 0.00 93 1016.8
20190220045020 22 96 9.0 14.0 0.00 0.00 0.00 92 1016.8
20190220044607 22 95 8.0 15.0 0.00 0.00 0.00 92 1016.8
20190220044016 22 92 11.0 15.0 0.00 0.00 0.00 92 1017.2
20190220043515 22 88 11.0 16.0 0.00 0.00 0.00 92 1017.2
20190220043025 22 98 10.0 17.0 0.00 0.00 0.00 91 1017.2
20190220042515 22 97 12.0 17.0 0.00 0.00 0.00 91 1018.1
20190220042010 22 98 9.0 13.0 0.00 0.00 0.00 91 1018.1
20190220041534 22 100 10.0 14.0 0.00 0.00 0.00 90 1018.1
20190220041012 22 97 10.0 19.0 0.00 0.00 0.00 90 1018.3
20190220040505 22 90 14.0 19.0 0.00 0.00 0.00 89 1018.3
20190220040025 22 92 12.0 16.0 0.00 0.00 0.00 88 1018.3
20190220035506 22 103 10.0 14.0 0.00 0.00 0.00 86 1018.9
20190220034727 22 94 9.0 14.0 0.00 0.00 0.00 85 1018.9
20190220034102 22 80 10.0 14.0 0.00 0.00 0.00 85 1019.6
20190220033557 22 86 9.0 16.0 0.00 0.00 0.00 85 1019.6
20190220033152 22 105 10.0 16.0 0.00 0.00 0.00 85 1019.6
20190220032553 22 100 10.0 17.0 0.00 0.00 0.00 85 1019.6
20190220032056 22 105 11.0 17.0 0.00 0.00 0.00 85 1019.6
20190220031635 22 98 11.0 15.0 0.00 0.00 0.00 85 1019.6
20190220031049 22 101 11.0 15.0 0.00 0.00 0.00 86 1020.1
20190220030549 22 107 10.0 14.0 0.00 0.00 0.00 86 1020.1
20190220030230 22 103 10.0 15.0 0.00 0.00 0.00 86 1020.1
20190220025545 22 96 9.0 19.0 0.00 0.00 0.00 86 1020.7
20190220025043 22 109 10.0 14.0 0.00 0.00 0.00 87 1020.7
20190220024631 22 101 10.0 14.0 0.00 0.00 0.00 88 1020.7
20190220024040 22 96 9.0 12.0 0.00 0.00 0.00 88 1020.2
20190220023541 22 117 8.0 12.0 0.00 0.00 0.00 89 1020.2
20190220023143 22 99 7.0 11.0 0.00 0.00 0.00 89 1020.2
20190220022537 22 119 8.0 11.0 0.00 0.00 0.00 89 1020.2
20190220022035 22 122 6.0 16.0 0.00 0.00 0.00 89 1020.2
20190220021619 22 86 10.0 22.0 0.00 0.00 0.00 89 1020.2
20190220021032 22 84 17.0 22.0 0.00 0.00 0.00 88 1021.3
20190220020530 22 80 16.0 22.0 0.00 0.00 0.00 88 1021.3
20190220020125 22 105 13.0 20.0 0.00 0.00 0.00 88 1021.3
20190220015529 22 109 10.0 14.0 0.00 0.00 0.00 89 1021.5
20190220015028 22 106 9.0 16.0 0.00 0.00 0.00 90 1021.5
20190220014555 22 86 11.0 16.0 0.00 0.00 0.00 90 1021.5
20190220014024 22 85 12.0 16.0 0.00 0.00 0.00 90 1022.1
20190220013522 21 92 11.0 14.0 0.00 0.00 0.00 90 1022.1
20190220013034 21 101 7.0 13.0 0.00 0.00 0.00 90 1022.1
20190220012520 21 118 8.0 13.0 0.00 0.00 0.00 90 1022.4
20190220012019 21 136 7.0 14.0 0.00 0.00 0.00 90 1022.4
20190220011522 21 106 9.0 16.0 0.00 0.00 0.00 91 1022.4
20190220011016 21 87 11.0 18.0 0.00 0.00 0.00 91 1021.8
20190220010517 21 82 12.0 18.0 0.00 0.00 0.00 91 1021.8
20190220010044 21 79 11.0 17.0 0.00 0.00 0.00 91 1021.8
20190220005512 21 84 13.0 17.0 0.00 0.00 0.00 90 1022.7
20190220005012 21 84 11.0 18.0 0.00 0.00 0.00 90 1022.7
20190220004509 21 85 8.0 16.0 0.00 0.00 0.00 90 1022.7
20190220004005 21 105 12.0 19.0 0.00 0.00 0.00 90 1022.9
20190220003505 21 86 13.0 18.0 0.00 0.00 0.00 90 1022.9
20190220003003 21 88 13.0 19.0 0.00 0.00 0.00 91 1022.9
20190220002600 21 84 14.0 19.0 0.00 0.00 0.00 91 1023.0
20190220002100 21 94 14.0 19.0 0.00 0.00 0.00 91 1023.0
20190220001751 21 78 11.0 15.0 0.00 0.00 0.00 91 1023.0
20190220001059 21 85 9.0 15.0 0.00 0.00 0.00 91 1024.0
20190220000554 21 57 11.0 15.0 0.00 0.00 0.00 91 1024.0
20190220000156 21 78 9.0 14.0 0.00 0.00 0.00 91 1024.0
20190219235552 21 74 10.0 13.0 0.00 0.00 0.00 91 1024.7
20190219235056 21 102 6.0 10.0 0.00 0.00 0.00 91 1024.7
20190219234714 21 90 8.0 12.0 0.00 0.00 0.00 92 1024.7
20190219234051 21 90 9.0 14.0 0.00 0.00 0.00 91 1024.6
20190219233546 21 88 10.0 16.0 0.00 0.00 0.00 91 1024.6
20190219233210 21 92 11.0 16.0 0.00 0.00 0.00 92 1024.6
20190219232549 20 85 11.0 15.0 0.00 0.00 0.00 92 1024.6
20190219232041 20 73 11.0 15.0 0.00 0.00 0.00 91 1024.6
20190219231624 20 92 9.0 14.0 0.00 0.00 0.00 91 1024.6
20190219231039 20 80 10.0 14.0 0.00 0.00 0.00 91 1025.5
20190219230540 21 67 10.0 14.0 0.00 0.00 0.00 90 1025.5
20190219230121 21 79 11.0 14.0 0.00 0.00 0.00 90 1025.5
20190219225535 21 84 8.0 13.0 0.00 0.00 0.00 89 1026.3
20190219225034 21 93 9.0 13.0 0.00 0.00 0.00 89 1026.3
20190219224551 21 85 7.0 14.0 0.00 0.00 0.00 88 1026.3
20190219224035 21 91 10.0 14.0 0.00 0.00 0.00 86 1026.8
20190219223528 22 103 7.0 14.0 0.00 0.00 0.00 85 1026.8
20190219223053 22 116 8.0 14.0 0.00 0.00 0.00 84 1026.8
20190219222530 22 109 9.0 14.0 0.00 0.00 0.00 82 1026.5
20190219222030 22 94 10.0 14.0 0.00 0.00 0.00 82 1026.5
20190219221602 22 118 10.0 14.0 0.00 0.00 0.00 81 1026.5
20190219221022 22 103 8.0 16.0 0.00 0.00 0.00 81 1025.7
20190219220526 22 97 12.0 17.0 0.00 0.00 0.00 80 1025.7
20190219220050 22 90 13.0 17.0 0.00 0.00 0.00 80 1025.7
20190219215518 22 88 8.0 16.0 0.00 0.00 0.00 81 1025.7
20190219215014 22 88 11.0 18.0 0.00 0.00 0.00 80 1025.7
20190219214528 22 86 14.0 18.0 0.00 0.00 0.00 80 1025.7
20190219214017 22 103 12.0 17.0 0.00 0.00 0.00 80 1025.8
20190219213511 22 67 13.0 17.0 0.00 0.00 0.00 79 1025.8
20190219213017 22 77 11.0 17.0 0.00 0.00 0.00 79 1025.8
20190219212508 22 90 11.0 17.0 0.00 0.00 0.00 79 1025.8
20190219212010 22 96 12.0 17.0 0.00 0.00 0.00 79 1025.8
20190219211516 22 84 13.0 17.0 0.00 0.00 0.00 78 1025.8
20190219211004 23 83 8.0 15.0 0.00 0.00 0.00 78 1026.8
20190219210503 22 103 8.0 15.0 0.00 0.00 0.00 79 1026.8
20190219205604 22 79 9.0 14.0 0.00 0.00 0.00 80 1026.8
20190219205057 22 78 11.0 14.0 0.00 0.00 0.00 79 1026.8
20190219204657 22 70 8.0 13.0 0.00 0.00 0.00 80 1026.8
20190219204102 21 79 9.0 13.0 0.00 0.00 0.00 80 1026.9
20190219203557 21 86 8.0 12.0 0.00 0.00 0.00 80 1026.9
20190219203157 21 79 8.0 15.0 0.00 0.00 0.00 81 1026.9
20190219202554 20 64 9.0 15.0 0.00 0.00 0.00 80 1026.8
20190219202051 21 65 9.0 14.0 0.00 0.00 0.00 80 1026.8
20190219201633 20 66 11.0 14.0 0.00 0.00 0.00 79 1026.8
20190219201050 21 65 9.0 13.0 0.00 0.00 0.00 79 1027.5
20190219200544 21 64 10.0 13.0 0.00 0.00 0.00 79 1027.5
20190219200204 21 81 8.0 11.0 0.00 0.00 0.00 79 1027.5
20190219195548 20 74 8.0 13.0 0.00 0.00 0.00 79 1028.0
20190219195040 20 74 9.0 13.0 0.00 0.00 0.00 78 1028.0
20190219194605 20 63 9.0 12.0 0.00 0.00 0.00 78 1028.0
20190219194042 20 47 9.0 11.0 0.00 0.00 0.00 78 1028.8
20190219193536 21 68 9.0 11.0 0.00 0.00 0.00 78 1028.8
20190219193141 21 60 7.0 10.0 0.00 0.00 0.00 79 1028.8
20190219192534 21 49 7.0 10.0 0.00 0.00 0.00 78 1029.2
20190219192031 21 59 9.0 10.0 0.00 0.00 0.00 78 1029.2
20190219191607 21 77 8.0 11.0 0.00 0.00 0.00 78 1029.2
20190219191033 21 82 8.0 11.0 0.00 0.00 0.00 78 1029.5
20190219190527 21 69 7.0 13.0 0.00 0.00 0.00 79 1029.5
20190219190045 21 79 8.0 12.0 0.00 0.00 0.00 79 1029.5
20190219185525 20 95 8.0 11.0 0.00 0.00 0.00 78 1030.0
20190219185025 20 86 7.0 11.0 0.00 0.00 0.00 79 1030.0
20190219184528 20 98 7.0 13.0 0.00 0.00 0.00 78 1030.0
20190219184020 20 88 6.0 13.0 0.00 0.00 0.00 78 1030.1
20190219183522 19 92 7.0 11.0 0.00 0.00 0.00 79 1030.1
20190219183044 19 91 8.0 13.0 0.00 0.00 0.00 79 1030.1
20190219182515 19 94 6.0 13.0 0.00 0.00 0.00 79 1030.3
20190219182014 19 84 8.0 11.0 0.00 0.00 0.00 79 1030.3
20190219181519 19 76 8.0 10.0 0.00 0.00 0.00 79 1030.3
20190219181011 18 86 6.0 10.0 0.00 0.00 0.00 79 1031.1
20190219180509 18 104 8.0 10.0 0.00 0.00 0.00 80 1031.1
20190219180011 18 80 7.0 10.0 0.00 0.00 0.00 80 1031.1
20190219175512 17 90 7.0 11.0 0.00 0.00 0.00 80 1031.2
20190219175004 17 82 8.0 12.0 0.00 0.00 0.00 80 1031.2
20190219174506 17 68 8.0 11.0 0.00 0.00 0.00 80 1031.2
20190219174004 17 85 7.0 10.0 0.00 0.00 0.00 80 1031.8
20190219173559 17 80 8.0 10.0 0.00 0.00 0.00 80 1031.8
20190219173130 17 88 8.0 10.0 0.00 0.00 0.00 80 1031.8
20190219172602 16 87 8.0 12.0 0.00 0.00 0.00 80 1032.2
20190219172101 16 92 8.0 12.0 0.00 0.00 0.00 79 1032.2
20190219171708 16 111 6.0 13.0 0.00 0.00 0.00 80 1032.2
20190219171053 16 124 9.0 13.0 0.00 0.00 0.00 81 1032.0
20190219170555 15 109 8.0 14.0 0.00 0.00 0.00 81 1032.0
20190219170208 15 92 10.0 14.0 0.00 0.00 0.00 82 1032.0
20190219165549 15 88 8.0 11.0 0.00 0.00 0.00 82 1032.8
20190219165048 15 81 8.0 10.0 0.00 0.00 0.00 82 1032.8
20190219164657 14 80 6.0 9.0 0.00 0.00 0.00 83 1032.8
20190219164044 14 82 6.0 9.0 0.00 0.00 0.00 84 1033.1
20190219163547 14 80 7.0 9.0 0.00 0.00 0.00 84 1033.1
20190219163132 13 81 6.0 9.0 0.00 0.00 0.00 85 1033.1
20190219162540 13 81 7.0 10.0 0.00 0.00 0.00 85 1033.3
20190219162038 13 81 7.0 10.0 0.00 0.00 0.00 85 1033.3
20190219161632 13 82 7.0 10.0 0.00 0.00 0.00 86 1033.3
20190219161035 12 84 7.0 12.0 0.00 0.00 0.00 86 1033.7
20190219160534 12 78 8.0 12.0 0.00 0.00 0.00 86 1033.7
20190219160112 12 79 7.0 9.0 0.00 0.00 0.00 87 1033.7
20190219155533 12 84 5.0 9.0 0.00 0.00 0.00 88 1033.9
20190219155030 11 76 5.0 9.0 0.00 0.00 0.00 88 1033.9
20190219154647 11 73 7.0 9.0 0.00 0.00 0.00 88 1033.9
20190219154030 11 73 6.0 9.0 0.00 0.00 0.00 89 1034.3
20190219153527 10 65 6.0 8.0 0.00 0.00 0.00 89 1034.3
20190219153054 10 65 4.0 7.0 0.00 0.00 0.00 89 1034.3
20190219152522 9 65 4.0 7.0 0.00 0.00 0.00 89 1034.4
20190219152024 9 63 4.0 7.0 0.00 0.00 0.00 89 1034.4
20190219151628 9 56 3.0 6.0 0.00 0.00 0.00 89 1034.4
20190219151018 9 53 4.0 5.0 0.00 0.00 0.00 89 1034.5
20190219150522 9 53 2.0 5.0 0.00 0.00 0.00 89 1034.5
20190219150036 8 53 3.0 5.0 0.00 0.00 0.00 89 1034.5
20190219145514 8 53 3.0 5.0 0.00 0.00 0.00 89 1034.5
20190219145013 8 53 3.0 5.0 0.00 0.00 0.00 89 1034.5
20190219144535 7 51 3.0 5.0 0.00 0.00 0.00 89 1034.5
20190219144009 7 52 3.0 5.0 0.00 0.00 0.00 89 1034.6
20190219143508 7 323 0.0 3.0 0.00 0.00 0.00 90 1034.6
20190219143016 6 323 0.0 0.0 0.00 0.00 0.00 90 1034.6
20190219142508 6 323 0.0 0.0 0.00 0.00 0.00 89 1034.7
20190219142002 6 323 0.0 0.0 0.00 0.00 0.00 89 1034.7
20190219141504 5 323 0.0 0.0 0.00 0.00 0.00 89 1034.7
20190219141100 5 323 0.0 0.0 0.00 0.00 0.00 89 1034.9
20190219140559 5 323 0.0 0.0 0.00 0.00 0.00 90 1034.9
20190219140242 5 323 0.0 0.0 0.00 0.00 0.00 89 1034.9
20190219135602 4 323 0.0 0.0 0.00 0.00 0.00 89 1034.9
20190219135058 4 323 0.0 0.0 0.00 0.00 0.00 89 1034.9
20190219134636 3 323 0.0 0.0 0.00 0.00 0.00 88 1034.9
20190219134051 3 323 0.0 0.0 0.00 0.00 0.00 88 1034.8
20190219133551 3 323 0.0 0.0 0.00 0.00 0.00 87 1034.8